Cosmos 1484 Rocket - Orbit

View from above orbital plane
View from above orbital plane
View from above satellite
View from above satellite

Ground track
Ground track

The orbit data is extracted from the following two-line orbital elements,

1 14208U 83075B   13137.80783308  .00002860  00000-0  20145-3 0  7449
2 14208 097.4763 182.8748 0043909 212.0268 147.8289 15.05032429622704
Epoch (UTC): 17 May 2013 19:23:16
Eccentricity: 0.0043909
inclination: 97.4763°
perigee height: 521 km
apogee height: 582 km
right ascension of ascending node: 182.8748°
argument of perigee: 212.0268°
revolutions per day: 15.05032429
mean anomaly at epoch: 147.8289°
orbit number at epoch: 62270

The dashed part of the orbit path shows where the satellite is in the earth's shadow,  

Developed and maintained by Chris Peat, Heavens-Above GmbH. Please read the updated FAQ before sending e-mail. Imprint. DLR